Total_Precipitation_Accumulation
0.10 0.21 0.49 0.56 0.52 0.52 0.60 0.60 0.58 0.57 0.58 0.62 0.63 0.65 0.63 0.61 0.57 0.55 0.56 0.57 0.57 0.62 0.74 0.84 0.87 0.82 0.75 0.70 0.69 0.64 0.60 0.53 0.48 0.41 0.41 0.44 0.43 0.37 0.31 0.28 0.24 0.35 0.45
0.10 0.19 0.46 0.52 0.51 0.54 0.59 0.56 0.51 0.52 0.53 0.56 0.56 0.59 0.61 0.57 0.56 0.57 0.59 0.60 0.62 0.67 0.74 0.81 0.82 0.79 0.71 0.68 0.71 0.68 0.59 0.43 0.35 0.30 0.29 0.31 0.39 0.41 0.38 0.35 0.34 0.44 0.46
0.11 0.18 0.36 0.47 0.48 0.57 0.59 0.54 0.49 0.48 0.48 0.51 0.55 0.56 0.58 0.57 0.56 0.59 0.60 0.61 0.67 0.73 0.76 0.79 0.73 0.68 0.67 0.68 0.65 0.63 0.59 0.44 0.30 0.25 0.23 0.29 0.41 0.49 0.48 0.42 0.40 0.45 0.46
0.12 0.18 0.25 0.41 0.47 0.58 0.60 0.56 0.54 0.51 0.49 0.53 0.57 0.57 0.58 0.62 0.63 0.60 0.59 0.65 0.69 0.78 0.84 0.78 0.70 0.69 0.69 0.67 0.58 0.57 0.56 0.47 0.31 0.22 0.16 0.26 0.47 0.63 0.55 0.49 0.44 0.45 0.46
0.12 0.17 0.28 0.43 0.49 0.58 0.64 0.66 0.63 0.60 0.57 0.58 0.60 0.56 0.59 0.63 0.64 0.62 0.61 0.66 0.69 0.73 0.74 0.73 0.71 0.73 0.70 0.64 0.55 0.52 0.59 0.56 0.36 0.15 0.14 0.19 0.40 0.78 0.58 0.53 0.49 0.45 0.45
0.12 0.18 0.32 0.51 0.61 0.66 0.67 0.72 0.71 0.67 0.69 0.70 0.66 0.64 0.68 0.71 0.71 0.65 0.62 0.62 0.64 0.68 0.70 0.65 0.66 0.69 0.71 0.65 0.56 0.56 0.65 0.68 0.37 0.17 0.18 0.22 0.39 0.76 0.67 0.60 0.53 0.47 0.46
0.12 0.21 0.33 0.58 0.74 0.73 0.72 0.75 0.77 0.79 0.83 0.84 0.81 0.80 0.81 0.81 0.80 0.79 0.75 0.66 0.61 0.60 0.63 0.64 0.64 0.66 0.71 0.67 0.61 0.69 0.75 0.68 0.38 0.33 0.25 0.24 0.41 0.71 0.75 0.69 0.61 0.54 0.49
0.16 0.25 0.39 0.70 0.84 0.82 0.82 0.85 0.86 0.85 0.89 0.90 0.91 0.90 0.88 0.85 0.85 0.90 0.86 0.73 0.61 0.52 0.50 0.53 0.56 0.61 0.64 0.63 0.66 0.77 0.75 0.51 0.26 0.19 0.17 0.22 0.41 0.70 0.96 0.90 0.72 0.61 0.54
0.26 0.32 0.48 0.69 0.88 0.96 0.97 0.94 0.88 0.89 0.89 0.90 0.91 0.93 0.90 0.83 0.84 0.86 0.84 0.75 0.64 0.56 0.51 0.48 0.49 0.54 0.56 0.59 0.63 0.64 0.55 0.38 0.22 0.24 0.20 0.26 0.41 0.78 1.12 1.07 0.86 0.70 0.61
0.38 0.47 0.60 0.77 0.87 0.93 1.00 0.99 0.93 0.87 0.85 0.85 0.86 0.90 0.81 0.77 0.77 0.78 0.74 0.68 0.62 0.61 0.58 0.51 0.48 0.49 0.47 0.45 0.49 0.48 0.41 0.33 0.22 0.26 0.30 0.31 0.35 0.74 1.16 1.17 1.03 0.87 0.75
0.57 0.69 0.78 0.91 1.00 1.06 1.07 1.01 1.03 0.96 0.92 0.88 0.85 0.85 0.81 0.77 0.75 0.71 0.65 0.61 0.61 0.61 0.56 0.51 0.47 0.47 0.44 0.40 0.39 0.39 0.35 0.27 0.25 0.32 0.34 0.30 0.39 0.78 1.21 1.29 1.18 1.04 0.96
0.58 0.72 0.81 0.97 1.06 1.15 1.13 1.17 1.18 1.04 0.96 0.90 0.80 0.75 0.78 0.77 0.75 0.68 0.66 0.61 0.60 0.61 0.60 0.60 0.54 0.48 0.42 0.37 0.40 0.41 0.34 0.29 0.30 0.26 0.25 0.24 0.43 0.82 1.18 1.31 1.27 1.16 1.12
0.59 0.74 0.87 0.99 1.13 1.20 1.21 1.23 1.23 1.15 1.05 0.98 0.86 0.84 0.90 0.90 0.83 0.78 0.74 0.68 0.67 0.65 0.70 0.71 0.72 0.62 0.56 0.51 0.51 0.45 0.37 0.36 0.33 0.28 0.21 0.23 0.37 0.69 1.08 1.29 1.35 1.34 1.35
0.74 0.84 0.98 1.14 1.28 1.33 1.33 1.29 1.23 1.16 1.07 1.04 0.94 0.91 0.97 0.98 0.88 0.81 0.77 0.69 0.67 0.68 0.69 0.75 0.78 0.73 0.68 0.62 0.59 0.54 0.49 0.41 0.35 0.33 0.28 0.26 0.28 0.47 0.75 1.02 1.25 1.43 1.50
0.77 0.90 1.08 1.21 1.34 1.44 1.53 1.50 1.34 1.21 1.10 1.04 1.02 0.90 0.85 0.87 0.84 0.78 0.71 0.64 0.59 0.58 0.59 0.62 0.65 0.67 0.67 0.64 0.62 0.57 0.56 0.52 0.43 0.36 0.31 0.29 0.26 0.33 0.48 0.71 0.99 1.36 1.59
0.76 0.92 1.12 1.29 1.44 1.57 1.56 1.59 1.53 1.43 1.27 1.16 1.07 0.96 0.85 0.81 0.78 0.73 0.65 0.57 0.50 0.47 0.45 0.45 0.45 0.49 0.54 0.53 0.50 0.49 0.46 0.47 0.48 0.46 0.41 0.37 0.28 0.28 0.36 0.55 0.80 1.11 1.46
0.75 1.00 1.21 1.39 1.57 1.67 1.65 1.61 1.66 1.68 1.55 1.39 1.22 1.09 0.96 0.87 0.82 0.80 0.77 0.70 0.63 0.57 0.53 0.50 0.45 0.43 0.45 0.46 0.47 0.47 0.43 0.42 0.44 0.49 0.49 0.46 0.38 0.31 0.31 0.42 0.62 0.87 1.20
0.83 1.01 1.28 1.43 1.55 1.61 1.71 1.77 1.72 1.77 1.75 1.55 1.36 1.24 1.10 0.97 0.87 0.87 0.84 0.75 0.73 0.74 0.70 0.66 0.60 0.55 0.48 0.44 0.45 0.48 0.47 0.45 0.45 0.47 0.50 0.47 0.46 0.38 0.33 0.34 0.48 0.70 0.98
0.86 0.97 1.18 1.36 1.42 1.53 1.67 1.85 1.93 1.93 1.87 1.69 1.49 1.35 1.26 1.12 0.96 0.88 0.87 0.80 0.74 0.73 0.72 0.72 0.70 0.68 0.64 0.57 0.52 0.50 0.51 0.49 0.45 0.46 0.50 0.51 0.52 0.49 0.46 0.37 0.38 0.51 0.74
0.97 1.07 1.19 1.38 1.46 1.63 1.79 1.87 2.00 2.03 1.98 1.90 1.74 1.52 1.42 1.31 1.16 1.01 0.92 0.88 0.85 0.81 0.75 0.69 0.69 0.70 0.69 0.65 0.61 0.56 0.55 0.54 0.53 0.49 0.53 0.62 0.61 0.54 0.54 0.53 0.46 0.39 0.47
1.01 1.11 1.21 1.37 1.41 1.58 1.69 1.69 1.65 1.75 1.78 1.82 1.85 1.77 1.65 1.53 1.39 1.24 1.10 1.00 0.98 0.91 0.84 0.74 0.67 0.67 0.66 0.65 0.66 0.61 0.57 0.52 0.47 0.42 0.45 0.58 0.69 0.71 0.66 0.67 0.68 0.58 0.48
0.93 1.05 1.18 1.31 1.35 1.40 1.42 1.45 1.50 1.53 1.61 1.68 1.76 1.83 1.82 1.71 1.54 1.42 1.28 1.12 0.99 0.95 0.90 0.83 0.75 0.69 0.66 0.61 0.64 0.68 0.61 0.56 0.49 0.39 0.33 0.40 0.50 0.60 0.63 0.65 0.72 0.77 0.67
0.93 1.00 1.12 1.25 1.30 1.41 1.50 1.58 1.63 1.75 1.79 1.72 1.65 1.71 1.77 1.73 1.62 1.50 1.40 1.31 1.19 1.06 0.98 0.93 0.88 0.81 0.75 0.67 0.60 0.77 0.81 0.62 0.45 0.33 0.30 0.31 0.33 0.38 0.44 0.50 0.57 0.64 0.74
0.92 1.04 1.17 1.29 1.40 1.47 1.60 1.60 1.50 1.47 1.54 1.47 1.46 1.45 1.58 1.71 1.69 1.57 1.54 1.50 1.37 1.23 1.07 0.96 0.96 0.95 0.92 0.87 0.75 0.67 0.66 0.62 0.65 0.48 0.29 0.26 0.24 0.25 0.27 0.33 0.40 0.46 0.56
0.97 1.05 1.23 1.31 1.43 1.56 1.60 1.61 1.48 1.36 1.32 1.40 1.52 1.58 1.55 1.58 1.68 1.64 1.55 1.53 1.46 1.33 1.24 1.14 1.01 0.99 1.00 0.99 0.92 0.80 0.72 0.61 0.57 0.67 0.47 0.30 0.29 0.26 0.26 0.28 0.31 0.35 0.43
0.93 1.05 1.16 1.34 1.39 1.59 1.63 1.60 1.45 1.31 1.24 1.30 1.39 1.58 1.66 1.66 1.68 1.69 1.61 1.56 1.47 1.33 1.26 1.26 1.17 1.07 1.03 1.03 1.00 0.93 0.90 0.85 0.69 0.71 0.65 0.41 0.35 0.33 0.32 0.33 0.34 0.37 0.43